Weather History for The Dalles, OR

Change the Weather History Date:

Saturday, July 13, 2013

  Actual Average Record
Temperature  
Mean Temperature 70 °F -  
Max Temperature 88 °F 85 °F 107 °F (1996)
Min Temperature 52 °F 59 °F 49 °F (1969)
Cooling Degree Days 4    
Growing Degree Days 20 (Base 50)    
Moisture  
Dew Point 37 °F    
Average Humidity 37    
Maximum Humidity 72    
Minimum Humidity 7    
Precipitation  
Precipitation 0.00 in - - ()
Sea Level Pressure  
Sea Level Pressure 30.05 in    
Wind  
Wind Speed 5 mph (West)    
Max Wind Speed 13 mph    
Max Gust Speed -    
Visibility 10 miles    
Events      
Averages and records for this station are not official NWS values.
T = Trace of Precipitation, MM = Missing Value Source: NWS Daily Summary

Daily Weather History Graph

Daily Weather History Graph

Search for Another Location

Airport:

Trip Planner

Search our weather history database for the weather conditions in past years. The results will help you decide how hot, cold, wet, or windy it might be!

Date:

Astronomy

Jul. 13, 2013 Rise Set
Actual Time 5:28 AM PDT 8:51 PM PDT
Civil Twilight 4:51 AM PDT 9:28 PM PDT
Nautical Twilight 4:03 AM PDT 10:16 PM PDT
Astronomical Twilight 3:02 AM PDT 11:17 PM PDT
Moon 11:09 AM PDT (7/13) 11:14 PM PDT (7/13)
Length of Visible Light 16h 36m
Length of Day
15h 23m
Waxing Crescent, 26% of the Moon is Illuminated
Jul 13
Waxing Crescent
Jul 15
First Quarter
Jul 22
Full
Jul 29
Last Quarter
Aug 6
New

Hourly Weather History & Observations

Time (PDT) Temp. Dew Point Humidity Pressure Visibility Wind Dir Wind Speed Gust Speed Precip Events Conditions
12:53 AM 62.1 °F 45.0 °F 53% 30.05 in 10.0 mi WNW 4.6 mph - N/A   Clear
1:53 AM 60.1 °F 48.9 °F 67% 30.05 in 10.0 mi NNW 8.1 mph - N/A   Clear
2:53 AM 57.9 °F 48.9 °F 72% 30.06 in 10.0 mi West 5.8 mph - N/A   Clear
3:53 AM 59.0 °F 48.0 °F 67% 30.07 in 10.0 mi NW 12.7 mph - N/A   Clear
4:53 AM 57.0 °F 46.9 °F 69% 30.08 in 10.0 mi SE 3.5 mph - N/A   Clear
5:53 AM 52.0 °F 42.1 °F 69% 30.10 in 10.0 mi WSW 3.5 mph - N/A   Clear
6:53 AM 55.9 °F 42.1 °F 60% 30.12 in 10.0 mi SE 5.8 mph - N/A   Clear
7:53 AM 62.1 °F 46.0 °F 56% 30.13 in 10.0 mi Calm Calm - N/A   Clear
8:53 AM 64.9 °F 46.0 °F 50% 30.13 in 10.0 mi Calm Calm - N/A   Clear
9:53 AM 69.1 °F 45.0 °F 42% 30.12 in 10.0 mi NNW 6.9 mph - N/A   Clear
10:53 AM 73.9 °F 43.0 °F 33% 30.11 in 10.0 mi North 6.9 mph - N/A   Clear
11:53 AM 75.9 °F 39.9 °F 27% 30.09 in 10.0 mi Calm Calm - N/A   Clear
12:53 PM 79.0 °F 30.9 °F 17% 30.07 in 10.0 mi Variable 4.6 mph - N/A   Clear
1:53 PM 82.0 °F 30.0 °F 15% 30.06 in 10.0 mi Calm Calm - N/A   Clear
2:53 PM 84.9 °F 21.0 °F 10% 30.03 in 10.0 mi South 5.8 mph - N/A   Clear
3:53 PM 86.0 °F 16.0 °F 7% 30.01 in 10.0 mi ESE 5.8 mph - N/A   Clear
4:53 PM 87.1 °F 19.9 °F 8% 29.99 in 10.0 mi Variable 4.6 mph - N/A   Clear
5:53 PM 86.0 °F 19.0 °F 8% 29.98 in 10.0 mi SW 4.6 mph - N/A   Clear
6:53 PM 86.0 °F 21.0 °F 9% 29.97 in 10.0 mi Calm Calm - N/A   Clear
7:53 PM 82.0 °F 39.0 °F 22% 29.97 in 10.0 mi NNW 8.1 mph - N/A   Clear
8:53 PM 73.9 °F 44.1 °F 34% 29.97 in 10.0 mi NNW 6.9 mph - N/A   Clear
9:53 PM 72.0 °F 37.0 °F 28% 29.99 in 10.0 mi SW 8.1 mph - N/A   Clear
10:53 PM 71.1 °F 37.9 °F 30% 30.01 in 10.0 mi South 3.5 mph - N/A   Clear
11:53 PM 66.0 °F 37.0 °F 34% 30.03 in 10.0 mi SSW 6.9 mph - N/A   Clear